Lapse_Rate
4.7 4.9 5.4 5.2 4.9 4.8 5.1 5.3 5.3 5.2 5.1 5.2 5.5 5.7 5.8 5.8 5.9 5.7 5.7 5.8 6.0 5.9 6.0 6.2 6.3 6.3 6.1 5.9 5.7 5.7 5.7 5.7 5.8 5.5 5.6 5.6 5.7 5.6 5.6 5.6 5.7 6.1 6.5
5.0 5.0 4.9 4.8 5.1 4.8 5.2 5.4 5.3 5.3 5.3 5.4 5.5 5.7 5.9 5.8 5.9 5.8 5.7 5.9 6.1 6.0 6.0 6.1 6.3 6.3 6.4 6.2 6.1 6.0 5.7 5.8 5.9 5.7 5.7 5.6 5.5 5.2 5.6 5.7 5.8 6.2 6.1
5.0 4.9 4.8 5.0 5.0 5.3 5.3 5.3 5.4 5.5 5.4 5.6 5.8 5.9 5.8 6.0 5.9 5.9 5.8 5.8 5.9 5.9 5.9 6.1 6.3 6.3 6.4 6.2 6.1 6.1 6.1 5.7 5.9 5.7 5.6 5.8 5.5 5.2 5.5 5.9 5.9 6.0 6.1
5.0 5.0 5.0 5.1 5.0 5.1 5.3 5.5 5.6 5.6 5.7 5.8 5.8 5.8 5.9 6.0 5.9 6.0 5.8 5.8 5.8 6.0 5.9 6.0 6.2 6.4 6.4 6.4 6.2 6.0 6.2 6.1 5.9 6.0 5.7 6.0 5.6 5.3 5.2 5.6 6.1 6.2 6.2
5.2 5.1 5.1 5.1 5.2 5.5 5.7 5.7 5.8 5.8 5.9 5.8 5.9 5.9 6.0 6.0 5.9 5.8 5.9 5.9 5.8 5.9 6.0 6.1 6.1 6.2 6.2 6.3 6.3 6.1 6.0 6.2 6.0 6.0 6.2 6.2 5.4 5.4 5.3 5.6 5.6 5.9 6.1
5.3 5.2 5.3 5.3 5.5 5.7 5.8 5.9 5.8 5.9 6.0 6.1 6.0 6.1 6.0 5.9 5.8 5.9 5.9 6.0 6.0 6.1 6.2 6.3 6.3 6.3 6.3 6.3 6.2 6.2 6.2 6.0 6.1 6.0 6.0 5.7 5.8 5.6 5.6 5.6 5.7 5.9 6.0
5.4 5.4 5.5 5.7 5.7 5.7 5.9 5.8 5.9 6.2 6.3 6.1 6.1 6.1 6.0 5.8 5.9 6.1 6.0 6.1 6.1 6.1 6.2 6.3 6.3 6.2 6.1 6.2 6.3 6.3 6.4 6.2 5.3 6.0 5.8 5.9 5.9 5.9 5.5 5.6 5.7 5.8 5.8
5.6 5.7 5.8 5.8 5.8 5.9 5.9 5.9 6.0 6.3 6.2 6.1 6.1 6.0 5.8 5.9 6.1 6.1 5.9 6.0 6.0 6.1 6.2 6.2 6.1 6.0 5.9 6.0 6.1 6.2 6.2 6.1 5.9 6.0 5.6 5.5 5.9 6.0 5.7 5.6 5.7 5.8 5.9
5.6 5.9 6.0 5.9 5.9 5.9 6.0 6.0 6.1 6.2 6.1 6.0 6.0 5.9 5.7 5.9 5.9 5.8 5.8 5.8 5.9 6.0 6.1 6.1 6.0 6.1 6.0 6.0 6.0 5.9 6.4 6.4 5.9 6.2 5.8 6.1 5.5 5.9 6.0 5.9 5.9 5.8 5.8
5.5 5.8 6.0 6.0 6.0 6.1 6.0 6.0 6.1 6.0 5.9 6.0 5.7 5.8 6.0 6.1 6.0 5.9 5.9 5.9 6.2 6.1 5.9 6.4 6.4 6.1 5.9 5.7 6.0 5.9 5.9 5.9 6.1 6.4 5.9 6.0 5.8 5.8 5.9 6.1 6.0 6.1 5.9
5.7 5.9 6.0 6.0 6.0 5.9 6.0 6.0 6.0 5.9 5.9 5.7 5.5 6.1 5.9 5.8 6.1 6.3 6.0 5.9 5.6 5.4 5.8 5.6 5.7 5.9 5.9 5.9 5.8 5.7 5.5 5.8 6.1 5.8 5.9 5.7 5.6 5.7 5.9 6.0 6.1 6.0 6.0
5.9 6.0 6.1 5.9 5.9 5.9 5.9 5.9 5.9 5.8 5.7 5.5 5.7 5.9 5.8 6.3 6.1 5.8 6.0 5.9 5.5 5.6 6.2 5.7 5.7 5.4 5.7 5.7 5.7 5.6 5.5 5.3 5.1 5.5 5.8 5.7 5.6 5.8 5.9 6.0 6.2 6.3 6.2
6.0 6.3 6.0 6.0 6.1 6.1 5.9 5.7 5.6 5.7 5.7 5.6 5.5 5.8 6.0 6.3 6.2 5.8 5.9 5.9 5.7 5.8 5.9 6.0 6.0 5.8 5.8 5.5 5.2 5.4 4.9 5.1 5.4 5.6 5.7 5.4 5.3 5.8 6.0 5.8 6.1 6.2 6.4
6.4 6.4 6.2 6.1 6.2 6.1 6.1 6.0 5.9 5.7 5.7 5.6 5.6 5.5 6.3 6.4 6.3 6.0 5.9 5.9 5.6 5.5 6.0 6.3 6.2 6.1 5.8 5.4 5.7 5.5 5.2 5.6 6.0 5.8 5.9 5.7 5.7 5.8 5.8 5.8 5.9 6.3 6.3
6.3 6.3 6.4 6.3 6.4 6.4 6.4 6.3 6.0 6.1 6.0 6.0 5.9 5.7 5.9 5.8 5.8 6.1 5.7 6.1 6.1 6.2 6.3 6.3 5.7 5.6 5.6 5.6 6.3 6.4 6.3 6.4 6.2 6.2 6.1 5.9 5.9 5.8 5.8 5.8 6.0 5.9 6.2
6.0 6.2 6.3 6.4 6.3 6.5 6.4 6.6 6.6 6.7 6.6 6.0 5.9 5.6 5.8 6.0 5.8 5.9 5.7 6.0 5.9 5.8 5.2 5.4 5.6 5.6 5.4 5.9 6.4 6.5 6.0 6.3 6.1 6.4 6.4 6.0 6.0 5.7 5.6 5.7 5.8 5.9 5.9
6.2 6.1 6.6 6.6 6.7 6.7 6.5 6.5 6.3 6.3 5.8 5.5 5.5 5.5 5.6 5.8 5.8 5.6 5.5 5.3 5.3 5.4 5.4 5.5 5.7 5.6 5.7 5.7 6.0 6.4 6.0 6.1 6.2 6.3 6.4 6.2 6.2 6.1 5.7 5.5 5.6 5.9 5.9
6.4 7.0 7.1 6.7 6.9 6.9 6.8 6.6 6.4 6.4 6.2 5.9 6.0 5.9 5.6 5.6 5.5 5.5 5.6 5.6 5.6 5.5 5.6 5.3 5.7 5.6 5.7 5.7 6.0 6.2 6.3 6.1 5.9 6.2 6.0 6.1 6.4 6.2 6.2 6.0 5.7 5.6 5.8
6.4 7.1 7.1 7.1 6.9 6.9 6.6 6.6 6.4 6.3 6.5 6.2 6.4 6.3 5.9 5.7 5.6 5.6 5.6 5.8 5.8 5.4 6.0 5.7 5.7 6.0 6.1 6.2 6.0 5.9 5.9 5.6 5.0 4.5 5.9 5.2 5.7 6.4 6.5 6.2 6.0 5.9 5.9
6.3 6.9 6.8 7.1 7.0 6.8 6.7 6.9 6.7 6.5 6.5 6.4 6.5 6.3 5.8 5.7 5.7 5.9 5.7 6.0 5.8 6.0 6.0 6.1 6.3 6.3 6.2 6.1 6.1 6.0 5.2 5.3 5.2 5.0 4.8 5.0 5.6 6.3 6.7 6.6 6.1 6.1 6.0
6.4 6.8 6.8 6.8 7.0 6.9 6.9 6.9 6.8 6.5 6.4 6.4 6.0 5.7 6.0 5.9 6.0 6.0 6.1 6.0 6.2 6.5 6.4 6.7 6.5 6.6 6.6 6.1 6.1 5.9 5.2 4.5 5.0 4.8 4.7 4.5 5.2 5.2 5.8 6.2 6.3 6.4 5.9
6.7 6.9 6.8 6.7 6.8 6.9 6.8 6.7 6.5 6.4 6.3 6.3 6.0 6.1 6.2 6.5 6.3 6.4 6.3 6.4 6.4 6.6 6.6 6.4 6.5 6.6 6.6 6.3 6.0 5.5 4.4 4.7 4.6 4.8 4.7 4.4 4.9 5.3 5.2 5.4 6.0 6.3 6.3
6.8 6.8 6.7 6.7 6.5 6.8 6.9 6.7 6.4 6.6 6.6 6.4 6.8 6.8 6.2 6.8 6.5 6.4 6.3 6.6 6.8 6.6 6.6 6.5 6.5 6.5 6.5 6.5 6.1 5.5 5.0 4.8 4.8 4.5 4.4 4.4 4.8 4.7 5.1 5.4 5.0 5.9 6.3
6.6 6.7 6.7 6.7 6.6 6.5 6.6 6.6 6.4 6.5 6.4 6.2 6.5 6.6 6.9 6.7 6.8 6.7 6.8 6.7 6.7 6.6 6.5 6.3 6.4 6.4 6.5 6.5 6.5 6.2 5.2 4.4 4.3 4.3 4.3 4.6 4.4 5.0 5.2 5.2 5.3 5.0 5.5
6.5 6.6 6.8 6.7 6.7 6.5 6.5 6.3 6.4 6.6 6.4 6.4 6.5 6.7 6.8 6.9 6.8 6.8 6.8 6.8 6.7 6.6 6.6 6.4 6.4 6.3 6.3 6.3 6.4 6.6 6.3 5.5 4.4 4.4 4.4 4.2 4.3 4.1 4.5 5.2 5.3 5.4 5.2
7.2 7.0 7.3 7.1 6.9 6.8 6.6 6.6 6.5 6.7 6.6 6.6 6.6 6.9 6.9 6.8 6.9 7.0 6.8 6.8 6.6 6.4 6.3 6.2 6.6 6.6 6.0 6.1 6.2 6.6 6.6 6.4 6.0 5.4 4.9 4.7 4.3 4.0 4.1 3.9 4.3 5.2 5.4
Wind_Speed
3 10 20 21 23 21 21 20 21 21 20 21 20 20 20 20 19 18 18 17 16 14 14 13 11 11 11 10 8 7 9 11 11 11 11 11 11 12 12 13 17 16 17
8 17 19 23 21 21 20 21 20 20 20 20 18 19 19 18 17 16 15 15 15 13 14 12 10 10 10 8 6 5 7 7 8 8 9 11 11 10 10 13 18 17 17
12 16 18 20 21 21 20 20 20 19 19 18 17 18 18 16 15 14 14 14 13 12 12 10 9 9 8 8 4 2 6 6 5 6 7 10 10 11 19 18 19 18 18
17 17 16 19 21 20 19 19 19 18 18 16 15 16 16 14 13 14 13 12 11 10 9 8 8 8 8 6 3 3 4 4 3 3 5 7 11 12 16 18 18 18 18
16 18 19 19 20 19 18 18 17 17 16 14 13 14 13 12 12 12 12 10 9 8 7 7 6 6 6 5 4 3 5 3 5 6 9 12 12 11 14 15 16 18 18
17 19 20 20 20 19 18 17 16 15 14 12 12 12 11 11 11 11 9 8 7 6 5 5 5 5 4 3 3 4 5 7 10 12 12 14 14 12 11 12 13 17 17
15 19 19 20 19 19 18 16 15 15 13 11 10 10 10 10 10 8 7 6 5 3 3 3 4 4 2 1 2 3 5 12 17 10 13 16 15 13 13 12 12 13 16
15 17 18 19 18 19 18 16 15 14 13 11 9 9 8 8 7 6 5 4 3 2 3 3 2 1 1 2 1 2 7 19 19 19 18 4 15 14 14 11 12 12 13
19 16 16 16 18 19 18 16 14 13 12 11 9 8 6 5 4 2 3 3 2 1 2 3 2 3 4 6 8 5 9 23 20 17 21 19 11 16 15 14 13 12 13
16 14 13 14 15 15 16 16 14 13 12 11 9 7 6 4 4 6 4 3 0 1 4 6 6 5 5 6 7 8 8 21 20 17 22 16 13 13 14 15 14 13 12
14 14 15 14 14 15 15 15 14 13 11 10 9 10 8 7 11 5 3 5 4 5 14 16 12 8 7 12 8 9 9 19 14 14 14 18 18 16 15 14 14 14 13
15 16 14 14 15 16 16 15 13 11 11 11 13 13 9 6 3 3 3 3 2 8 7 10 10 13 10 9 9 3 8 19 10 14 11 14 17 18 17 15 15 14 13
15 14 15 14 19 17 13 15 12 14 15 16 18 15 11 6 3 6 1 2 7 6 2 9 10 13 10 1 5 4 11 17 13 13 13 16 16 15 16 16 16 16 15
12 14 15 14 12 13 15 13 14 11 13 12 16 18 12 9 9 11 3 8 6 3 7 8 10 12 8 4 4 6 4 5 14 14 14 16 17 17 16 15 16 16 15
15 17 14 15 12 10 11 12 10 10 12 13 15 17 14 12 6 5 7 9 10 12 8 7 9 2 6 4 3 4 0 2 11 15 15 13 13 15 18 16 16 16 16
18 18 14 11 11 11 6 7 6 11 13 14 12 16 10 10 9 8 5 4 8 12 12 3 3 3 4 6 4 7 5 4 5 13 15 15 13 13 16 16 16 16 16
18 18 17 13 11 10 8 6 3 6 6 7 11 16 16 11 5 5 3 3 3 2 2 1 2 3 4 5 5 3 4 6 5 3 8 14 12 11 14 13 14 17 16
19 19 17 15 14 10 8 5 4 3 4 3 8 15 14 12 11 5 3 2 3 4 2 1 1 1 3 4 3 4 1 3 3 4 1 9 11 9 10 12 13 14 15
16 18 18 16 16 12 8 6 6 5 2 4 11 11 11 14 11 7 4 4 6 4 1 2 1 2 1 3 3 4 4 3 4 3 7 6 7 11 12 10 9 8 8
15 20 18 13 16 12 6 6 4 3 3 7 7 11 13 12 10 7 4 7 5 3 3 1 2 2 0 2 3 4 3 2 4 3 5 8 11 14 6 5 3 3 3
14 16 16 12 15 10 6 6 4 4 3 3 6 13 14 15 14 11 5 3 3 3 4 4 2 2 2 1 2 3 3 2 5 3 7 6 9 8 17 15 12 13 10
15 17 14 12 14 13 9 6 4 4 3 4 4 8 14 15 15 10 6 3 3 3 3 4 3 1 2 1 2 2 2 3 2 2 4 4 6 9 10 13 13 14 12
18 17 16 15 12 13 12 6 3 2 1 2 2 4 8 16 15 11 9 5 4 4 5 4 3 3 1 3 2 4 3 1 1 2 3 3 5 3 4 10 11 13 16
17 17 17 16 14 11 13 11 8 5 4 4 4 6 5 12 12 14 12 10 6 4 6 4 4 3 3 1 2 2 3 3 2 1 2 2 3 4 5 4 9 11 20
20 20 18 18 16 14 12 13 8 6 7 6 3 8 6 6 11 13 12 10 6 5 4 7 5 6 4 4 2 1 1 1 2 2 2 2 1 2 2 3 10 11 15
18 19 18 19 18 15 15 12 13 11 8 8 5 4 7 7 5 7 11 10 8 6 6 4 3 3 1 1 1 3 2 2 3 2 2 2 1 1 3 4 4 9 14
Wind_Direction
133 134 120 117 119 120 116 114 104 101 100 97 97 96 96 95 95 94 96 100 99 96 88 81 77 75 84 89 98 98 97 93 90 89 88 92 100 109 116 127 116 114 107
140 123 130 121 121 122 117 114 108 106 102 101 102 102 101 98 99 102 103 102 98 97 89 85 82 76 77 81 86 101 95 98 106 98 101 98 109 112 130 127 121 115 112
133 133 137 127 125 124 120 116 114 110 105 105 107 104 104 107 110 110 104 97 98 93 91 88 82 81 76 73 73 76 99 115 129 129 134 109 118 105 105 122 123 120 115
139 136 137 129 129 126 123 122 122 117 111 108 104 107 107 113 115 108 101 97 96 93 90 87 82 78 76 77 66 11 45 87 122 198 184 164 118 111 119 120 121 115 115
132 134 138 134 131 130 130 130 127 121 119 117 116 112 116 120 116 106 102 100 95 93 87 74 66 68 74 71 59 25 8 16 74 78 134 136 114 117 119 121 126 123 117
127 135 136 137 137 139 136 134 133 130 128 128 124 120 124 122 115 107 103 96 92 82 73 67 68 66 75 73 58 37 9 3 45 71 122 120 116 124 123 124 126 123 121
129 139 139 138 141 143 140 142 141 141 141 139 133 134 132 126 115 112 97 93 93 74 51 50 67 60 64 86 48 17 30 48 51 53 107 121 131 129 121 125 125 125 124
133 139 144 145 145 146 148 148 149 150 151 149 151 147 135 126 126 120 113 110 86 48 33 34 45 69 315 298 216 126 71 84 69 55 7 103 142 137 135 138 133 130 130
137 141 142 150 151 147 147 149 150 151 158 160 162 156 151 133 128 163 173 164 137 74 14 3 346 353 340 309 307 340 92 111 94 91 25 297 173 147 147 144 143 137 142
140 142 151 154 152 150 147 149 152 156 163 167 164 170 182 166 207 227 210 250 254 303 359 8 340 332 310 300 311 337 8 137 128 137 159 219 186 160 154 155 156 151 153
148 153 152 156 157 156 154 162 161 164 167 170 180 197 200 211 217 219 260 305 319 339 16 351 333 310 299 301 313 16 359 145 155 163 182 195 176 165 168 166 162 161 162
159 157 159 160 165 162 164 171 172 174 180 188 200 200 199 225 295 116 144 38 72 41 348 327 302 301 299 324 312 250 279 156 161 167 184 184 183 172 174 170 171 168 167
158 161 159 163 169 171 162 172 185 191 196 203 205 199 190 233 37 124 303 108 125 241 56 308 315 289 295 156 49 28 51 127 146 157 180 192 188 172 177 174 173 175 175
158 155 165 167 166 179 162 178 189 190 200 200 209 191 177 143 144 167 161 187 167 198 296 273 280 273 251 23 9 4 33 85 159 161 167 174 183 181 178 181 179 178 180
152 161 168 168 159 164 174 184 186 201 201 197 196 203 198 140 169 178 171 215 186 217 222 239 230 273 350 8 305 254 47 357 137 156 175 185 189 184 179 181 182 186 187
162 164 165 165 159 165 183 186 191 204 196 187 178 182 177 150 142 164 174 182 186 197 204 154 79 17 333 335 311 283 253 45 143 149 178 189 198 180 189 178 184 187 193
168 169 165 169 168 174 179 190 191 178 170 148 168 184 180 167 145 125 125 97 12 81 140 63 67 354 349 329 316 245 84 134 103 97 161 190 198 187 187 195 190 189 194
170 167 166 173 172 177 170 166 187 201 159 131 136 159 178 167 147 148 125 168 197 174 189 100 34 346 343 353 319 344 4 126 155 156 78 156 189 198 186 186 198 204 199
159 160 170 174 176 176 165 154 177 209 169 189 140 169 169 164 155 182 172 189 207 172 138 148 136 148 15 323 332 21 357 106 50 93 112 78 107 182 169 191 206 211 216
155 162 175 167 177 175 167 157 168 204 207 214 170 164 167 177 172 199 211 170 192 121 150 129 91 346 266 282 330 346 350 346 69 63 113 83 75 118 141 174 189 205 187
162 165 171 154 173 168 169 164 166 190 209 206 190 191 181 175 190 190 189 166 187 148 176 151 131 70 324 204 66 349 327 274 88 115 111 69 60 113 101 100 94 108 104
173 174 173 171 154 172 175 176 162 165 192 197 202 177 180 182 185 176 170 193 238 153 136 124 114 45 318 30 131 104 24 351 18 136 94 96 78 85 101 111 108 126 123
176 177 180 178 160 166 166 166 139 105 44 182 182 171 178 182 179 168 175 140 132 112 154 147 152 122 52 318 66 133 62 193 17 335 116 151 134 118 122 138 139 139 149
180 176 177 177 171 167 157 164 164 176 195 222 192 193 185 179 167 175 167 162 147 132 149 162 150 143 118 353 347 47 109 147 122 67 330 221 133 164 179 204 160 153 164
176 180 177 178 179 173 162 167 173 181 203 225 211 181 169 168 170 162 173 144 149 143 162 153 155 161 156 146 171 154 149 119 106 130 213 283 272 240 244 197 176 186 160
178 176 174 174 180 174 178 167 178 187 198 213 219 169 174 174 172 183 155 150 158 155 163 154 149 160 139 47 133 118 111 164 200 150 122 262 158 112 249 255 216 185 192